Date,TemperatureHighF,TemperatureAvgF,TemperatureLowF,DewpointHighF,DewpointAvgF,DewpointLowF,HumidityHigh,HumidityAvg,HumidityLow,PressureMaxIn,PressureMinIn,WindSpeedMaxMPH,WindSpeedAvgMPH,GustSpeedMaxMPH,PrecipitationSumIn
2012-1-1,39.0,28.3,20.0,-99.9,-99.9,-99.9,0,0,100,0.00,40.00,16,9,26,0.00
2012-1-2,50.0,31.3,13.0,-99.9,-99.9,-99.9,0,0,100,0.00,40.00,19,5,21,0.00
2012-1-3,55.0,37.6,25.0,-99.9,-99.9,-99.9,0,0,100,0.00,40.00,16,9,23,0.00
2012-1-4,62.0,38.3,23.0,-99.9,-99.9,-99.9,0,0,100,0.00,40.00,16,9,26,0.00
2012-1-5,69.0,44.1,29.0,-99.9,-99.9,-99.9,0,0,100,0.00,40.00,13,8,17,0.00
2012-1-6,48.0,37.4,23.0,-99.9,-99.9,-99.9,0,0,100,0.00,40.00,24,10,30,0.00
2012-1-7,42.0,29.6,20.0,-99.9,-99.9,-99.9,0,0,100,0.00,40.00,13,6,21,0.00
2012-1-8,48.0,30.7,22.0,-99.9,-99.9,-99.9,0,0,100,0.00,40.00,8,4,9,0.00
2012-1-9,57.0,35.5,20.0,-99.9,-99.9,-99.9,0,0,100,0.00,40.00,21,8,24,0.00
2012-1-10,60.0,37.5,23.0,-99.9,-99.9,-99.9,0,0,100,0.00,40.00,11,6,13,0.00
2012-1-11,41.0,28.9,18.0,-99.9,-99.9,-99.9,0,0,100,0.00,40.00,35,20,43,0.00
2012-1-12,37.0,26.0,11.0,-99.9,-99.9,-99.9,0,0,100,0.00,40.00,24,14,32,0.00
2012-1-13,50.0,34.9,20.0,-99.9,-99.9,-99.9,0,0,100,0.00,40.00,29,11,32,0.00
2012-1-14,57.0,37.2,23.0,-99.9,-99.9,-99.9,0,0,100,0.00,40.00,17,8,20,0.00
2012-1-15,68.0,44.3,25.0,-99.9,-99.9,-99.9,0,0,100,0.00,40.00,18,8,21,0.00
2012-1-16,35.0,26.6,14.0,-99.9,-99.9,-99.9,0,0,100,0.00,40.00,26,10,27,0.00
2012-1-17,33.0,18.1,2.0,-99.9,-99.9,-99.9,0,0,100,0.00,40.00,15,8,18,0.00
2012-1-18,51.0,30.4,18.0,-99.9,-99.9,-99.9,0,0,100,0.00,40.00,37,13,40,0.00
2012-1-19,32.0,20.1,9.0,-99.9,-99.9,-99.9,0,0,100,0.00,40.00,13,10,25,0.00
2012-1-20,35.0,25.7,18.0,-99.9,-99.9,-99.9,0,0,100,0.00,40.00,16,6,18,0.00
2012-1-21,53.0,33.3,18.0,-99.9,-99.9,-99.9,0,0,100,0.00,40.00,19,8,25,0.00
2012-1-22,42.0,34.7,29.0,-99.9,-99.9,-99.9,0,0,100,0.00,40.00,51,19,51,0.00
2012-1-23,55.0,33.2,20.0,-99.9,-99.9,-99.9,0,0,100,0.00,40.00,14,8,19,0.00
2012-1-24,42.0,30.3,23.0,-99.9,-99.9,-99.9,0,0,100,0.00,40.00,24,8,30,0.00
2012-1-25,57.0,33.7,14.0,-99.9,-99.9,-99.9,0,0,100,0.00,40.00,13,8,22,0.00
2012-1-26,57.0,39.4,27.0,-99.9,-99.9,-99.9,0,0,100,0.00,40.00,33,8,40,0.00
2012-1-27,41.0,35.7,16.0,-99.9,-99.9,-99.9,0,0,100,0.00,40.00,27,14,36,0.00
2012-1-28,44.0,28.1,16.0,-99.9,-99.9,-99.9,0,0,100,0.00,40.00,29,11,34,0.00
2012-1-29,62.0,41.3,23.0,-99.9,-99.9,-99.9,0,0,100,0.00,40.00,23,11,31,0.00
2012-1-30,66.0,44.3,25.0,-99.9,-99.9,-99.9,0,0,100,0.00,40.00,13,7,22,0.00
2012-1-31,57.0,42.6,31.0,-99.9,-99.9,-99.9,0,0,100,0.00,40.00,16,8,24,0.00
2012-2-1,53.0,36.0,23.0,-99.9,-99.9,-99.9,0,0,100,0.00,40.00,25,9,30,0.00
2012-2-2,59.0,40.4,27.0,-99.9,-99.9,-99.9,0,0,100,0.00,40.00,19,7,24,0.00
2012-2-3,42.0,33.9,32.0,-99.9,-99.9,-99.9,0,0,100,0.00,40.00,30,20,36,0.00
2012-2-4,37.0,29.7,20.0,-99.9,-99.9,-99.9,0,0,100,0.00,40.00,21,12,27,0.00
2012-2-5,41.0,24.0,14.0,-99.9,-99.9,-99.9,0,0,100,0.00,40.00,11,6,13,0.00
2012-2-6,44.0,26.9,14.0,-99.9,-99.9,-99.9,0,0,100,0.00,40.00,26,9,33,0.00
2012-2-7,32.0,27.3,22.0,-99.9,-99.9,-99.9,0,0,100,0.00,40.00,18,10,24,0.00
2012-2-8,32.0,23.9,20.0,-99.9,-99.9,-99.9,0,0,100,0.00,40.00,14,6,19,0.00
2012-2-9,46.0,30.2,18.0,-99.9,-99.9,-99.9,0,0,100,0.00,40.00,27,10,30,0.00
2012-2-10,27.0,22.3,18.0,-99.9,-99.9,-99.9,0,0,100,0.00,40.00,14,7,18,0.00
2012-2-11,23.0,16.5,9.0,-99.9,-99.9,-99.9,0,0,100,0.00,40.00,11,6,18,0.00
2012-2-12,32.0,25.7,20.0,-99.9,-99.9,-99.9,0,0,100,0.00,40.00,19,12,26,0.00
2012-2-13,32.0,25.6,23.0,-99.9,-99.9,-99.9,0,0,100,0.00,40.00,15,6,18,0.00
2012-3-3,46.0,37.1,32.0,-99.9,-99.9,-99.9,0,0,100,0.00,40.00,12,6,16,0.00
2012-3-4,59.0,47.7,33.0,-99.9,-99.9,-99.9,0,0,100,0.00,40.00,34,14,41,0.00
2012-3-5,73.0,50.5,35.0,-99.9,-99.9,-99.9,0,0,100,0.00,40.00,25,10,30,0.00
2012-3-6,73.0,50.4,31.0,-99.9,-99.9,-99.9,0,0,100,0.00,40.00,31,10,53,0.00
2012-3-7,44.0,37.7,27.0,-99.9,-99.9,-99.9,0,0,100,0.00,40.00,30,13,43,0.00
2012-3-8,55.0,36.8,23.0,-99.9,-99.9,-99.9,0,0,100,0.00,40.00,17,9,23,0.00
2012-3-9,68.0,43.8,23.0,-99.9,-99.9,-99.9,0,0,100,0.00,40.00,19,9,23,0.00
2012-3-10,73.0,49.9,29.0,-99.9,-99.9,-99.9,0,0,100,0.00,40.00,26,10,32,0.00
2012-3-11,51.0,46.3,41.0,-99.9,-99.9,-99.9,0,0,100,0.00,40.00,18,8,22,0.00
2012-3-12,71.0,52.9,33.0,-99.9,-99.9,-99.9,0,0,100,0.00,40.00,30,11,36,0.00
2012-3-13,77.0,52.3,32.0,-99.9,-99.9,-99.9,0,0,100,0.00,40.00,11,4,15,0.00
2012-3-14,75.0,55.2,35.0,-99.9,-99.9,-99.9,0,0,100,0.00,40.00,18,6,25,0.00
2012-3-15,77.0,57.9,39.0,-99.9,-99.9,-99.9,0,0,100,0.00,40.00,23,7,28,0.00
2012-3-16,80.0,61.1,41.0,-99.9,-99.9,-99.9,0,0,100,0.00,40.00,24,8,26,0.00
2012-3-17,82.0,58.6,37.0,-99.9,-99.9,-99.9,0,0,100,0.00,40.00,18,9,24,0.00
2012-3-18,80.0,63.9,37.0,-99.9,-99.9,-99.9,0,0,100,0.00,40.00,38,19,51,0.00
2012-3-19,66.0,55.0,44.0,-99.9,-99.9,-99.9,0,0,100,0.00,40.00,26,9,42,0.00
2012-3-20,59.0,48.4,39.0,-99.9,-99.9,-99.9,0,0,100,0.00,40.00,22,12,29,0.00
2012-3-21,66.0,45.9,25.0,-99.9,-99.9,-99.9,0,0,100,0.00,40.00,18,8,21,0.00
2012-3-22,53.0,50.7,48.0,-99.9,-99.9,-99.9,0,0,100,0.00,40.00,18,8,26,0.00
2012-3-23,69.0,54.0,41.0,-99.9,-99.9,-99.9,0,0,100,0.00,40.00,8,3,12,0.00
2012-3-24,69.0,55.6,41.0,-99.9,-99.9,-99.9,0,0,100,0.00,40.00,17,8,22,0.00
2012-3-25,64.0,52.5,41.0,-99.9,-99.9,-99.9,0,0,100,0.00,40.00,10,4,15,0.00
2012-3-26,82.0,62.9,48.0,-99.9,-99.9,-99.9,0,0,100,0.00,40.00,29,12,50,0.00
2012-3-27,71.0,58.7,46.0,-99.9,-99.9,-99.9,0,0,100,0.00,40.00,42,20,51,0.00
2012-3-28,75.0,58.9,42.0,-99.9,-99.9,-99.9,0,0,100,0.00,40.00,17,8,22,0.00
2012-3-29,69.0,60.0,46.0,-99.9,-99.9,-99.9,0,0,100,0.00,40.00,27,9,33,0.00
2012-3-30,78.0,59.3,44.0,-99.9,-99.9,-99.9,0,0,100,0.00,40.00,21,7,32,0.00
2012-3-31,84.0,66.1,44.0,-99.9,-99.9,-99.9,0,0,100,0.00,40.00,14,7,18,0.00
2012-4-1,87.0,65.7,44.0,-99.9,-99.9,-99.9,0,0,100,0.00,40.00,13,4,19,0.00
2012-4-2,59.0,53.1,44.0,-99.9,-99.9,-99.9,0,0,100,0.00,40.00,51,29,54,0.00
2012-4-3,50.0,45.6,41.0,-99.9,-99.9,-99.9,0,0,100,0.00,40.00,38,17,47,0.00
2012-4-4,60.0,51.5,44.0,-99.9,-99.9,-99.9,0,0,100,0.00,40.00,14,8,19,0.00
2012-4-5,66.0,54.5,48.0,-99.9,-99.9,-99.9,0,0,100,0.00,40.00,21,10,27,0.00
2012-4-6,68.0,56.2,48.0,-99.9,-99.9,-99.9,0,0,100,0.00,40.00,33,19,42,0.00
2012-4-7,60.0,49.5,39.0,-99.9,-99.9,-99.9,0,0,100,0.00,40.00,33,16,40,0.00
2012-4-8,68.0,52.2,41.0,-99.9,-99.9,-99.9,0,0,100,0.00,40.00,16,8,26,0.00
2012-4-9,64.0,49.4,33.0,-99.9,-99.9,-99.9,0,0,100,0.00,40.00,21,7,22,0.00
2012-4-10,66.0,51.7,39.0,-99.9,-99.9,-99.9,0,0,100,0.00,40.00,17,11,24,0.00
2012-4-11,57.0,49.9,44.0,-99.9,-99.9,-99.9,0,0,100,0.00,40.00,27,13,31,0.00
2012-4-12,55.0,49.1,46.0,-99.9,-99.9,-99.9,0,0,100,0.00,40.00,18,11,25,0.00
2012-4-13,66.0,55.7,48.0,-99.9,-99.9,-99.9,0,0,100,0.00,40.00,23,11,36,0.00
2012-4-14,68.0,52.8,44.0,-99.9,-99.9,-99.9,0,0,100,0.00,40.00,21,10,28,0.00
2012-4-15,50.0,44.9,41.0,-99.9,-99.9,-99.9,0,0,100,0.00,40.00,37,22,43,0.00
2012-4-16,59.0,45.4,35.0,-99.9,-99.9,-99.9,0,0,100,0.00,40.00,11,6,16,0.00
2012-4-17,73.0,55.0,39.0,-99.9,-99.9,-99.9,0,0,100,0.00,40.00,16,9,30,0.00
2012-4-18,71.0,55.5,41.0,-99.9,-99.9,-99.9,0,0,100,0.00,40.00,21,8,24,0.00
2012-4-19,64.0,55.5,48.0,-99.9,-99.9,-99.9,0,0,100,0.00,40.00,22,11,28,0.00
2012-4-20,66.0,52.7,39.0,-99.9,-99.9,-99.9,0,0,100,0.00,40.00,15,8,16,0.00
2012-4-21,69.0,57.2,44.0,-99.9,-99.9,-99.9,0,0,100,0.00,40.00,25,11,27,0.00
2012-4-22,68.0,53.6,41.0,-99.9,-99.9,-99.9,0,0,100,0.00,40.00,10,5,14,0.00
2012-4-23,82.0,63.5,44.0,-99.9,-99.9,-99.9,0,0,100,0.00,40.00,9,5,18,0.00
2012-4-24,87.0,71.8,53.0,-99.9,-99.9,-99.9,0,0,100,0.00,40.00,17,10,39,0.00
2012-4-25,82.0,67.0,55.0,-99.9,-99.9,-99.9,0,0,100,0.00,40.00,17,8,22,0.00
2012-4-26,69.0,62.6,57.0,-99.9,-99.9,-99.9,0,0,100,0.00,40.00,21,10,30,0.00
2012-4-27,62.0,57.1,48.0,-99.9,-99.9,-99.9,0,0,100,0.00,40.00,31,13,38,0.00
2012-4-28,66.0,51.3,39.0,-99.9,-99.9,-99.9,0,0,100,0.00,40.00,19,8,27,0.00
2012-4-29,68.0,54.5,42.0,-99.9,-99.9,-99.9,0,0,100,0.00,40.00,11,5,14,0.00
2012-4-30,77.0,60.9,48.0,-99.9,-99.9,-99.9,0,0,100,0.00,40.00,17,9,23,0.00
2012-5-1,75.0,62.8,53.0,-99.9,-99.9,-99.9,0,0,100,0.00,40.00,13,6,21,0.00
2012-5-2,77.0,63.0,46.0,-99.9,-99.9,-99.9,0,0,100,0.00,40.00,20,8,28,0.00
2012-5-3,80.0,68.2,55.0,-99.9,-99.9,-99.9,0,0,100,0.00,40.00,15,8,26,0.00
2012-5-4,86.0,70.6,60.0,-99.9,-99.9,-99.9,0,0,100,0.00,40.00,25,6,27,0.00
2012-5-5,75.0,64.3,59.0,-99.9,-99.9,-99.9,0,0,100,0.00,40.00,23,12,27,0.00
2012-5-6,68.0,57.5,50.0,-99.9,-99.9,-99.9,0,0,100,0.00,40.00,27,13,31,0.00
2012-5-7,66.0,55.3,50.0,-99.9,-99.9,-99.9,0,0,100,0.00,40.00,17,8,21,0.00
2012-5-8,69.0,55.2,37.0,-99.9,-99.9,-99.9,0,0,100,0.00,40.00,15,8,23,0.00
2012-5-9,84.0,62.4,37.0,-99.9,-99.9,-99.9,0,0,100,0.00,40.00,11,5,18,0.00
2012-5-10,89.0,69.7,48.0,-99.9,-99.9,-99.9,0,0,100,0.00,40.00,32,8,38,0.00
2012-5-11,57.0,49.1,42.0,-99.9,-99.9,-99.9,0,0,100,0.00,40.00,25,13,34,0.00
2012-5-12,57.0,47.3,44.0,-99.9,-99.9,-99.9,0,0,100,0.00,40.00,8,2,12,0.00
2012-5-13,69.0,57.3,42.0,-99.9,-99.9,-99.9,0,0,100,0.00,40.00,11,4,13,0.00
2012-5-14,82.0,63.2,39.0,-99.9,-99.9,-99.9,0,0,100,0.00,40.00,13,5,16,0.00
2012-5-15,80.0,65.2,41.0,-99.9,-99.9,-99.9,0,0,100,0.00,40.00,17,10,22,0.00
2012-5-16,87.0,69.2,50.0,-99.9,-99.9,-99.9,0,0,100,0.00,40.00,29,12,31,0.00
2012-5-17,87.0,72.1,57.0,-99.9,-99.9,-99.9,0,0,100,0.00,40.00,13,6,18,0.00
2012-5-18,87.0,71.3,50.0,-99.9,-99.9,-99.9,0,0,100,0.00,40.00,36,10,53,0.00
2012-5-19,64.0,55.9,51.0,-99.9,-99.9,-99.9,0,0,100,0.00,40.00,28,14,36,0.00
2012-5-20,71.0,56.6,41.0,-99.9,-99.9,-99.9,0,0,100,0.00,40.00,12,6,18,0.00
2012-5-21,84.0,67.3,50.0,-99.9,-99.9,-99.9,0,0,100,0.00,40.00,24,11,32,0.00
2012-5-22,93.0,77.0,59.0,-99.9,-99.9,-99.9,0,0,100,0.00,40.00,23,12,33,0.00
2012-5-23,75.0,65.8,53.0,-99.9,-99.9,-99.9,0,0,100,0.00,40.00,27,15,33,0.00
2012-5-24,66.0,58.3,51.0,-99.9,-99.9,-99.9,0,0,100,0.00,40.00,24,12,34,0.00
2012-5-25,64.0,55.2,48.0,-99.9,-99.9,-99.9,0,0,100,0.00,40.00,23,11,29,0.00
2012-5-26,89.0,70.8,55.0,-99.9,-99.9,-99.9,0,0,100,0.00,40.00,39,15,44,0.00
2012-5-27,78.0,69.9,59.0,-99.9,-99.9,-99.9,0,0,100,0.00,40.00,31,12,46,0.00
2012-5-28,78.0,63.7,48.0,-99.9,-99.9,-99.9,0,0,100,0.00,40.00,31,14,33,0.00
2012-5-29,80.0,63.4,46.0,-99.9,-99.9,-99.9,0,0,100,0.00,40.00,15,6,16,0.00
2012-5-30,80.0,62.9,53.0,-99.9,-99.9,-99.9,0,0,100,0.00,40.00,33,12,38,0.00
2012-5-31,71.0,61.5,50.0,-99.9,-99.9,-99.9,0,0,100,0.00,40.00,23,10,30,0.00
2012-6-1,78.0,64.2,51.0,-99.9,-99.9,-99.9,0,0,100,0.00,40.00,21,7,26,0.00
2012-6-2,87.0,68.6,53.0,-99.9,-99.9,-99.9,0,0,100,0.00,40.00,22,7,30,0.00
2012-6-3,91.0,72.8,57.0,-99.9,-99.9,-99.9,0,0,100,0.00,40.00,24,10,37,0.00
2012-6-4,89.0,76.1,60.0,-99.9,-99.9,-99.9,0,0,100,0.00,40.00,13,9,24,0.00
2012-6-5,91.0,76.7,64.0,-99.9,-99.9,-99.9,0,0,100,0.00,40.00,25,12,36,0.00
2012-6-6,86.0,74.2,62.0,-99.9,-99.9,-99.9,0,0,100,0.00,40.00,24,12,26,0.00
2012-6-7,80.0,71.7,64.0,-99.9,-99.9,-99.9,0,0,100,0.00,40.00,29,13,38,0.00
2012-6-8,86.0,76.5,66.0,-99.9,-99.9,-99.9,0,0,100,0.00,40.00,25,10,27,0.00
2012-6-9,96.0,80.4,66.0,-99.9,-99.9,-99.9,0,0,100,0.00,40.00,23,11,33,0.00
2012-6-10,78.0,67.8,57.0,-99.9,-99.9,-99.9,0,0,100,0.00,40.00,50,20,57,0.00
2012-6-11,80.0,66.7,48.0,-99.9,-99.9,-99.9,0,0,100,0.00,40.00,24,10,28,0.00
2012-6-12,84.0,66.8,53.0,-99.9,-99.9,-99.9,0,0,100,0.00,40.00,23,13,30,0.00
2012-6-13,95.0,77.7,60.0,-99.9,-99.9,-99.9,0,0,100,0.00,40.00,15,8,24,0.00
2012-6-14,84.0,75.6,68.0,-99.9,-99.9,-99.9,0,0,100,0.00,40.00,25,12,31,0.00
2012-6-15,89.0,74.7,64.0,-99.9,-99.9,-99.9,0,0,100,0.00,40.00,26,11,40,0.00
2012-6-16,82.0,66.3,62.0,-99.9,-99.9,-99.9,0,0,100,0.00,40.00,17,9,27,0.00
2012-6-17,98.0,78.9,64.0,-99.9,-99.9,-99.9,0,0,100,0.00,40.00,21,8,29,0.00
2012-6-18,102.0,82.3,66.0,-99.9,-99.9,-99.9,0,0,100,0.00,40.00,17,8,23,0.00
2012-6-19,91.0,81.7,71.0,-99.9,-99.9,-99.9,0,0,100,0.00,40.00,29,13,31,0.00
2012-6-20,78.0,67.7,59.0,-99.9,-99.9,-99.9,0,0,100,0.00,40.00,42,18,54,0.00
2012-6-21,84.0,70.3,55.0,-99.9,-99.9,-99.9,0,0,100,0.00,40.00,18,8,21,0.00
2012-6-22,86.0,72.1,60.0,-99.9,-99.9,-99.9,0,0,100,0.00,40.00,27,15,38,0.00
2012-6-23,93.0,78.5,64.0,-99.9,-99.9,-99.9,0,0,100,0.00,40.00,18,10,28,0.00
2012-6-24,93.0,78.2,68.0,-99.9,-99.9,-99.9,0,0,100,0.00,40.00,15,9,23,0.00
2012-6-25,98.0,80.7,69.0,-99.9,-99.9,-99.9,0,0,100,0.00,40.00,21,13,31,0.00
2012-6-26,104.0,83.7,68.0,-99.9,-99.9,-99.9,0,0,100,0.00,40.00,15,7,22,0.00
2012-6-27,96.0,81.3,68.0,-99.9,-99.9,-99.9,0,0,100,0.00,40.00,17,8,25,0.00
2012-6-28,98.0,81.0,66.0,-99.9,-99.9,-99.9,0,0,100,0.00,40.00,50,8,50,0.00
2012-6-29,100.0,81.7,64.0,-99.9,-99.9,-99.9,0,0,100,0.00,40.00,13,6,16,0.00
2012-6-30,100.0,86.8,69.0,-99.9,-99.9,-99.9,0,0,100,0.00,40.00,11,7,18,0.00
2012-7-1,93.0,79.7,64.0,-99.9,-99.9,-99.9,0,0,100,0.00,40.00,16,8,26,0.00
2012-7-2,98.0,80.4,62.0,-99.9,-99.9,-99.9,0,0,100,0.00,40.00,18,7,28,0.00
2012-7-3,98.0,82.4,66.0,-99.9,-99.9,-99.9,0,0,100,0.00,40.00,15,7,23,0.00
2012-7-4,100.0,83.4,69.0,-99.9,-99.9,-99.9,0,0,100,0.00,40.00,24,8,36,0.00
2012-7-5,95.0,79.7,68.0,-99.9,-99.9,-99.9,0,0,100,0.00,40.00,26,12,37,0.00
2012-7-6,95.0,81.4,69.0,-99.9,-99.9,-99.9,0,0,100,0.00,40.00,24,9,33,0.00
2012-7-7,86.0,75.3,66.0,-99.9,-99.9,-99.9,0,0,100,0.00,40.00,15,11,21,0.00
2012-7-8,75.0,70.0,64.0,-99.9,-99.9,-99.9,0,0,100,0.00,40.00,16,5,22,0.00
2012-7-9,84.0,75.1,66.0,-99.9,-99.9,-99.9,0,0,100,0.00,40.00,12,6,17,0.00
2012-7-10,86.0,73.6,60.0,-99.9,-99.9,-99.9,0,0,100,0.00,40.00,10,6,18,0.00
2012-7-11,89.0,76.1,64.0,-99.9,-99.9,-99.9,0,0,100,0.00,40.00,14,7,22,0.00
2012-7-12,93.0,77.3,66.0,-99.9,-99.9,-99.9,0,0,100,0.00,40.00,23,8,40,0.00
2012-7-13,95.0,80.1,66.0,-99.9,-99.9,-99.9,0,0,100,0.00,40.00,13,6,19,0.00
2012-7-14,95.0,81.5,66.0,-99.9,-99.9,-99.9,0,0,100,0.00,40.00,15,7,23,0.00
2012-7-15,98.0,83.0,68.0,-99.9,-99.9,-99.9,0,0,100,0.00,40.00,15,9,21,0.00
2012-7-16,98.0,82.1,69.0,-99.9,-99.9,-99.9,0,0,100,0.00,40.00,17,8,21,0.00
2012-7-17,93.0,77.1,66.0,-99.9,-99.9,-99.9,0,0,100,0.00,40.00,27,6,27,0.00
2012-7-18,96.0,78.1,64.0,-99.9,-99.9,-99.9,0,0,100,0.00,40.00,25,6,59,0.00
2012-7-19,100.0,80.1,64.0,-99.9,-99.9,-99.9,0,0,100,0.00,40.00,14,6,21,0.00
2012-7-20,100.0,84.8,69.0,-99.9,-99.9,-99.9,0,0,100,0.00,40.00,17,8,24,0.00
2012-7-21,102.0,87.7,69.0,-99.9,-99.9,-99.9,0,0,100,0.00,40.00,15,8,22,0.00
2012-7-22,100.0,83.2,68.0,-99.9,-99.9,-99.9,0,0,100,0.00,40.00,15,6,20,0.00
2012-7-23,100.0,87.4,73.0,-99.9,-99.9,-99.9,0,0,100,0.00,40.00,22,9,26,0.00
2012-7-24,100.0,86.0,69.0,-99.9,-99.9,-99.9,0,0,100,0.00,40.00,15,7,21,0.00
2012-7-25,87.0,80.3,69.0,-99.9,-99.9,-99.9,0,0,100,0.00,40.00,28,11,36,0.00
2012-7-26,93.0,78.2,62.0,-99.9,-99.9,-99.9,0,0,100,0.00,40.00,13,7,18,0.00
2012-7-27,96.0,78.4,60.0,-99.9,-99.9,-99.9,0,0,100,0.00,40.00,16,8,28,0.00
2012-7-28,98.0,84.4,68.0,-99.9,-99.9,-99.9,0,0,100,0.00,40.00,13,5,18,0.00
2012-7-29,91.0,77.5,66.0,-99.9,-99.9,-99.9,0,0,100,0.00,40.00,20,8,42,0.00
2012-7-30,91.0,78.3,66.0,-99.9,-99.9,-99.9,0,0,100,0.00,40.00,11,5,17,0.00
2012-7-31,95.0,81.5,68.0,-99.9,-99.9,-99.9,0,0,100,0.00,40.00,15,6,21,0.00
2012-8-1,98.0,81.7,69.0,-99.9,-99.9,-99.9,0,0,100,0.00,40.00,15,8,21,0.00
2012-8-2,93.0,76.8,69.0,-99.9,-99.9,-99.9,0,0,100,0.00,40.00,16,6,23,0.00
2012-8-3,96.0,78.9,68.0,-99.9,-99.9,-99.9,0,0,100,0.00,40.00,30,11,43,0.00
2012-8-4,84.0,71.9,62.0,-99.9,-99.9,-99.9,0,0,100,0.00,40.00,24,10,33,0.00
2012-8-5,91.0,73.9,53.0,-99.9,-99.9,-99.9,0,0,100,0.00,40.00,19,8,25,0.00
2012-8-6,100.0,81.7,68.0,-99.9,-99.9,-99.9,0,0,100,0.00,40.00,13,6,18,0.00
2012-8-7,93.0,81.1,73.0,-99.9,-99.9,-99.9,0,0,100,0.00,40.00,19,8,23,0.00
2012-8-8,98.0,77.6,62.0,-99.9,-99.9,-99.9,0,0,100,0.00,40.00,18,8,24,0.00
2012-8-9,87.0,74.0,59.0,-99.9,-99.9,-99.9,0,0,100,0.00,40.00,13,5,17,0.00
2012-8-10,87.0,74.7,64.0,-99.9,-99.9,-99.9,0,0,100,0.00,40.00,12,6,20,0.00
2012-8-11,87.0,68.7,55.0,-99.9,-99.9,-99.9,0,0,100,0.00,40.00,20,8,42,0.00
2012-8-12,84.0,71.0,59.0,-99.9,-99.9,-99.9,0,0,100,0.00,40.00,21,13,26,0.00
2012-8-13,84.0,68.1,55.0,-99.9,-99.9,-99.9,0,0,100,0.00,40.00,14,7,23,0.00
2012-8-14,89.0,74.8,59.0,-99.9,-99.9,-99.9,0,0,100,0.00,40.00,15,8,22,0.00
2012-8-15,91.0,72.1,60.0,-99.9,-99.9,-99.9,0,0,100,0.00,40.00,29,13,35,0.00
2012-8-16,71.0,63.2,57.0,-99.9,-99.9,-99.9,0,0,100,0.00,40.00,14,6,16,0.00
2012-8-17,82.0,66.9,53.0,-99.9,-99.9,-99.9,0,0,100,0.00,40.00,13,5,21,0.00
2012-8-18,82.0,70.0,55.0,-99.9,-99.9,-99.9,0,0,100,0.00,40.00,29,11,34,0.00
2012-8-19,82.0,66.6,48.0,-99.9,-99.9,-99.9,0,0,100,0.00,40.00,9,4,14,0.00
2012-8-20,86.0,73.2,60.0,-99.9,-99.9,-99.9,0,0,100,0.00,40.00,18,8,22,0.00
2012-8-21,93.0,74.8,57.0,-99.9,-99.9,-99.9,0,0,100,0.00,40.00,13,6,21,0.00
2012-8-22,93.0,76.7,60.0,-99.9,-99.9,-99.9,0,0,100,0.00,40.00,21,9,29,0.00
2012-8-23,78.0,71.5,68.0,-99.9,-99.9,-99.9,0,0,100,0.00,40.00,15,5,18,0.00
2012-8-24,84.0,70.9,59.0,-99.9,-99.9,-99.9,0,0,100,0.00,40.00,15,7,22,0.00
2012-8-25,82.0,72.7,66.0,-99.9,-99.9,-99.9,0,0,100,0.00,40.00,31,10,35,0.00
2012-8-26,91.0,73.7,55.0,-99.9,-99.9,-99.9,0,0,100,0.00,40.00,20,7,26,0.00
2012-8-27,96.0,79.5,66.0,-99.9,-99.9,-99.9,0,0,100,0.00,40.00,16,8,28,0.00
2012-8-28,100.0,81.4,60.0,-99.9,-99.9,-99.9,0,0,100,0.00,40.00,23,8,26,0.00
2012-8-29,100.0,83.3,66.0,-99.9,-99.9,-99.9,0,0,100,0.00,40.00,24,10,27,0.00
2012-8-30,98.0,80.2,66.0,-99.9,-99.9,-99.9,0,0,100,0.00,40.00,19,8,29,0.00
2012-8-31,95.0,77.3,59.0,-99.9,-99.9,-99.9,0,0,100,0.00,40.00,21,8,25,0.00
2012-9-1,96.0,80.6,66.0,-99.9,-99.9,-99.9,0,0,100,0.00,40.00,19,10,26,0.00
2012-9-2,91.0,78.7,66.0,-99.9,-99.9,-99.9,0,0,100,0.00,40.00,18,7,23,0.00
2012-9-3,93.0,77.0,62.0,-99.9,-99.9,-99.9,0,0,100,0.00,40.00,11,5,19,0.00
2012-9-4,96.0,75.3,55.0,-99.9,-99.9,-99.9,0,0,100,0.00,40.00,21,9,24,0.00
2012-9-5,84.0,71.8,59.0,-99.9,-99.9,-99.9,0,0,100,0.00,40.00,17,7,24,0.00
2012-9-6,93.0,75.3,59.0,-99.9,-99.9,-99.9,0,0,100,0.00,40.00,19,10,34,0.00
2012-9-7,71.0,64.4,53.0,-99.9,-99.9,-99.9,0,0,100,0.00,40.00,23,11,29,0.00
2012-9-8,82.0,62.6,42.0,-99.9,-99.9,-99.9,0,0,100,0.00,40.00,14,7,20,0.00
2012-9-9,84.0,64.1,44.0,-99.9,-99.9,-99.9,0,0,100,0.00,40.00,21,8,24,0.00
2012-9-10,96.0,76.1,57.0,-99.9,-99.9,-99.9,0,0,100,0.00,40.00,16,8,25,0.00
2012-9-11,93.0,76.0,57.0,-99.9,-99.9,-99.9,0,0,100,0.00,40.00,24,10,34,0.00
2012-9-12,68.0,58.2,51.0,-99.9,-99.9,-99.9,0,0,100,0.00,40.00,28,13,34,0.00
2012-9-13,75.0,57.9,44.0,-99.9,-99.9,-99.9,0,0,100,0.00,40.00,12,4,15,0.00
2012-9-14,82.0,64.4,44.0,-99.9,-99.9,-99.9,0,0,100,0.00,40.00,8,3,10,0.00
2012-9-15,86.0,67.0,46.0,-99.9,-99.9,-99.9,0,0,100,0.00,40.00,14,6,26,0.00
2012-9-16,87.0,66.2,46.0,-99.9,-99.9,-99.9,0,0,100,0.00,40.00,24,8,24,0.00
2012-9-17,68.0,58.9,50.0,-99.9,-99.9,-99.9,0,0,100,0.00,40.00,36,10,40,0.00
2012-9-18,82.0,55.7,42.0,-99.9,-99.9,-99.9,0,0,100,0.00,40.00,24,7,24,0.00
2012-10-3,87.0,68.7,44.0,-99.9,-99.9,-99.9,0,0,100,0.00,40.00,51,25,51,0.00
2012-10-4,53.0,44.1,35.0,-99.9,-99.9,-99.9,0,0,100,0.00,40.00,16,9,22,0.00
2012-10-5,42.0,39.0,35.0,-99.9,-99.9,-99.9,0,0,100,0.00,40.00,9,4,21,0.00
2012-10-6,42.0,37.5,31.0,-99.9,-99.9,-99.9,0,0,100,0.00,40.00,9,5,18,0.00
2012-10-7,57.0,38.0,25.0,-99.9,-99.9,-99.9,0,0,100,0.00,40.00,14,7,24,0.00
2012-10-8,69.0,49.9,33.0,-99.9,-99.9,-99.9,0,0,100,0.00,40.00,13,6,19,0.00
2012-10-9,51.0,44.4,35.0,-99.9,-99.9,-99.9,0,0,100,0.00,40.00,18,9,23,0.00
2012-10-10,66.0,50.0,32.0,-99.9,-99.9,-99.9,0,0,100,0.00,40.00,22,8,26,0.00
2012-10-11,53.0,46.9,37.0,-99.9,-99.9,-99.9,0,0,100,0.00,40.00,20,9,27,0.00
2012-10-12,51.0,43.5,33.0,-99.9,-99.9,-99.9,0,0,100,0.00,40.00,17,7,20,0.00
2012-10-13,69.0,57.2,42.0,-99.9,-99.9,-99.9,0,0,100,0.00,40.00,32,14,37,0.00
2012-10-14,71.0,57.7,46.0,-99.9,-99.9,-99.9,0,0,100,0.00,40.00,25,13,31,0.00
2012-10-15,80.0,57.8,41.0,-99.9,-99.9,-99.9,0,0,100,0.00,40.00,16,8,20,0.00
2012-10-16,77.0,62.5,46.0,-99.9,-99.9,-99.9,0,0,100,0.00,40.00,27,12,35,0.00
2012-10-17,59.0,52.2,44.0,-99.9,-99.9,-99.9,0,0,100,0.00,40.00,44,25,55,0.00
2012-10-18,57.0,50.3,41.0,-99.9,-99.9,-99.9,0,0,100,0.00,40.00,63,37,70,0.00
2012-10-19,71.0,49.8,29.0,-99.9,-99.9,-99.9,0,0,100,0.00,40.00,13,6,18,0.00
2012-10-20,80.0,58.4,39.0,-99.9,-99.9,-99.9,0,0,100,0.00,40.00,13,6,16,0.00
2012-10-21,68.0,55.9,44.0,-99.9,-99.9,-99.9,0,0,100,0.00,40.00,21,10,27,0.00
2012-10-22,68.0,52.0,44.0,-99.9,-99.9,-99.9,0,0,100,0.00,40.00,13,6,15,0.00
2012-10-23,78.0,58.4,46.0,-99.9,-99.9,-99.9,0,0,100,0.00,40.00,22,8,31,0.00
2012-10-24,55.0,47.3,33.0,-99.9,-99.9,-99.9,0,0,100,0.00,40.00,25,14,39,0.00
2012-10-25,39.0,33.9,29.0,-99.9,-99.9,-99.9,0,0,100,0.00,40.00,17,9,26,0.00
2012-10-26,37.0,33.1,31.0,-99.9,-99.9,-99.9,0,0,100,0.00,40.00,10,5,17,0.00
2012-10-27,51.0,37.7,31.0,-99.9,-99.9,-99.9,0,0,100,0.00,40.00,12,5,17,0.00
2012-10-28,64.0,43.6,32.0,-99.9,-99.9,-99.9,0,0,100,0.00,40.00,11,4,15,0.00
2012-10-29,71.0,50.9,35.0,-99.9,-99.9,-99.9,0,0,100,0.00,40.00,15,5,16,0.00
2012-10-30,73.0,55.3,42.0,-99.9,-99.9,-99.9,0,0,100,0.00,40.00,20,7,23,0.00
2012-10-31,69.0,51.3,37.0,-99.9,-99.9,-99.9,0,0,100,0.00,40.00,13,6,20,0.00
2012-11-1,69.0,50.6,33.0,-99.9,-99.9,-99.9,0,0,100,0.00,40.00,11,4,17,0.00
2012-11-2,57.0,47.9,37.0,-99.9,-99.9,-99.9,0,0,100,0.00,40.00,25,7,32,0.00
2012-11-3,66.0,45.0,31.0,-99.9,-99.9,-99.9,0,0,100,0.00,40.00,14,5,18,0.00
2012-11-4,66.0,46.6,32.0,-99.9,-99.9,-99.9,0,0,100,0.00,40.00,21,10,28,0.00
2012-11-5,62.0,46.2,32.0,-99.9,-99.9,-99.9,0,0,100,0.00,40.00,12,6,14,0.00
2012-11-6,62.0,48.8,37.0,-99.9,-99.9,-99.9,0,0,100,0.00,40.00,22,9,25,0.00
2012-11-7,69.0,41.9,31.0,-99.9,-99.9,-99.9,0,0,100,0.00,40.00,13,3,16,0.00